Location: *
(50.7333°N, 4.2333°E)
Time: 01:43:32
(UTC+00:00)

Daily predictions for brighter satellites

Satellite Brightness Start Highest point End
(mag) Time Altitude Azimuth Time Altitude Azimuth Time Altitude Azimuth
ATLAS 3B R/B 4.4 00:55:00 25° NNE 00:55:00 25° NNE 00:59:09 10° NE
CENTAUR R/B 4.3 01:09:39 31° N 01:10:05 31° N 01:17:02 10° ENE
Cosmos 1980 Rocket 4.1 01:40:54 26° NE 01:40:54 26° NE 01:43:16 10° NNE
Cosmos 1844 Rocket 4.4 01:51:37 28° NNE 01:52:16 28° NE 01:57:03 10° ESE
USA 267 4.2 01:49:09 10° ENE 01:53:43 41° E 01:53:43 41° E
USA 229 DEB 4.2 02:12:41 55° NNE 02:12:41 55° NNE 02:18:12 10° NE
USA 229 4.1 02:12:47 55° NNE 02:12:47 55° NNE 02:18:18 10° NE
NOSS 3-1 (A) 4.1 02:17:15 52° NE 02:17:15 52° NE 02:22:15 10° NE
Resurs 1-4 Rocket 4.0 02:14:37 10° N 02:16:36 23° N 02:16:36 23° N
SL-16 R/B 3.0 02:29:54 49° ENE 02:29:54 49° ENE 02:34:20 10° NE
USA 234 4.1 02:24:53 10° SE 02:28:36 37° SE 02:28:36 37° SE
Cosmos 1697 Rocket 4.2 02:35:25 27° N 02:35:25 27° N 02:38:37 10° NNE
NOSS 3-1 (C) 3.9 02:36:02 53° N 02:36:02 53° N 02:41:45 10° NE
CZ-2D R/B 4.0 02:36:12 10° N 02:38:05 21° N 02:38:05 21° N
Meteor 2-4 Rocket 4.3 02:46:51 48° N 02:46:51 48° N 02:50:53 10° NNE
Nadezhda 1 Rocket 4.3 02:39:01 10° N 02:45:23 68° ENE 02:48:35 31° SSE
ATLAS 3B R/B 4.0 02:42:16 19° NNW 02:46:10 33° NNE 02:52:11 10° E
Cosmos 1745 Rocket 4.4 02:48:24 43° SE 02:50:10 57° E 02:56:15 10° NNE
Cosmos 1975 Rocket 4.3 02:56:31 39° E 02:56:34 39° E 03:00:44 10° NNE
ADEOS II 2.9 02:52:21 10° N 02:55:56 43° N 02:55:56 43° N
NOSS 2-3 (C) 4.4 03:00:58 56° NNE 03:00:58 56° NNE 03:05:32 10° NE
Cosmos 494 Rocket 4.2 03:02:05 64° NNE 03:02:05 64° NNE 03:06:30 10° NNE
USA 238 DEB 4.2 02:56:48 20° NW 03:01:53 61° NE 03:09:10 10° ESE
USA 238 4.2 02:56:55 20° NW 03:01:59 61° NE 03:09:15 10° ESE
CENTAUR R/B 4.0 02:56:50 15° NW 03:02:44 44° NNE 03:10:42 10° E
Cosmos 2322 Rocket 2.1 03:03:09 80° NE 03:03:09 80° NE 03:08:28 10° NNE
BREEZE-M DEB (TANK) 3.9 03:11:26 39° SSE 03:11:26 39° SSE 03:14:39 10° E
Cosmos 2360 Rocket 2.5 03:14:42 47° SSE 03:16:04 61° ESE 03:21:38 10° NE
Lacrosse 4 Rocket 2.9 03:22:48 28° N 03:22:48 28° N 03:25:07 10° NNE
Cosmos 1980 Rocket 3.4 03:22:41 27° NNW 03:22:41 27° NNW 03:27:01 10° NNE
Cosmos 1066 Rocket 4.3 03:22:33 37° S 03:24:40 71° E 03:30:09 10° NNE
Gblst 52 Del rocket 3.9 03:25:16 74° WSW 03:25:47 88° SSE 03:31:31 10° ENE
Cosmos 1386 Rocket 4.4 03:23:17 35° S 03:26:11 89° E 03:32:38 10° N
Meteor 1-13 Rocket 4.5 03:26:42 54° WNW 03:26:42 54° WNW 03:32:21 10° N
NOSS 3-2 (A) 4.1 03:23:32 14° NW 03:30:03 73° NE 03:38:17 10° SE
ARIANE 5 R/B 3.5 03:27:21 10° N 03:30:37 31° NNW 03:30:37 31° NNW
PSLV R/B 3.9 03:29:40 10° NNE 03:33:57 63° ESE 03:35:05 44° SSE
Cosmos 1455 Rocket 2.9 03:31:45 10° N 03:36:11 90° E 03:36:43 69° S
H-2A R/B 3.6 03:32:21 10° NNE 03:36:13 42° E 03:39:28 14° SSE
Cosmos 1844 Rocket 2.5 03:33:41 28° NW 03:36:41 70° WSW 03:42:13 10° SSE
IDEFIX/ARIANE 42P 2.7 03:32:58 10° NNE 03:38:16 74° ESE 03:41:42 22° S
USA 267 3.3 03:32:14 10° ENE 03:38:46 73° NNW 03:41:04 43° W
Cosmos 1544 Rocket 3.5 03:34:42 10° N 03:39:04 78° E 03:43:23 10° SSE
Meteor 1-15 Rocket 4.4 03:33:48 10° NNW 03:38:58 50° WNW 03:38:58 50° WNW
Okean 2 3.7 03:38:54 43° SSE 03:40:05 65° E 03:44:11 10° NNE
Spot 2 3.9 03:36:09 10° NNE 03:40:16 81° ESE 03:40:35 73° SSE
BREEZE-M R/B 4.3 03:42:21 36° SSW 03:44:06 51° SSE 03:53:06 10° ENE
Cosmos 2333 Rocket 3.5 03:40:29 10° S 03:45:39 38° ESE 03:50:53 10° NE
Cosmos 2278 Rocket 3.2 03:42:42 10° NNW 03:48:13 47° NE 03:53:40 10° SE
NOSS 3-2 (C) 4.2 03:43:17 10° NW 03:50:33 69° NE 03:58:46 10° SE
Cosmos 1844 3.6 03:45:18 10° NNW 03:51:05 68° WSW 03:56:49 10° SSE
Cosmos 921 Rocket 4.1 03:51:13 10° NNW 03:55:27 46° ENE 03:59:34 10° SE
Resurs 1-4 Rocket 4.3 03:56:52 10° NNW 03:57:40 11° NW 03:57:40 11° NW
Cosmos 2333 4.4 03:58:21 15° SSW 04:03:04 70° ESE 04:08:43 10° NNE
COSMOS 2455 2.9 04:01:05 20° SSW 04:05:26 78° ESE 04:11:30 10° NE
Cosmos 1766 3.2 04:03:10 10° NNW 04:07:00 55° W 04:10:50 10° S
NOSS 3-1 (A) 4.4 04:04:41 27° WNW 04:07:15 37° NNW 04:13:42 10° NE
Cosmos 1709 Rocket 3.9 04:02:43 10° SSW 04:08:58 75° WNW 04:15:21 10° N
PAYLOAD A 4.0 04:07:44 10° NNE 04:12:31 78° ESE 04:17:24 10° S
Cosmos 2322 3.7 04:08:22 19° SSW 04:12:38 87° WNW 04:18:25 10° NNE
SL-16 R/B 3.0 04:11:47 28° WNW 04:13:13 32° NW 04:18:18 10° NNE
Cosmos 1992 Rocket 3.9 04:08:28 10° NNW 04:13:37 60° WSW 04:18:43 10° S
OPS 8737 4.1 04:13:27 59° WSW 04:13:58 79° NW 04:16:59 10° NE
Cosmos 2251 Rocket 3.5 04:09:39 15° SSW 04:14:05 86° WNW 04:19:31 10° NNE
CZ-2C R/B 2.8 04:09:23 10° NNE 04:14:35 69° ESE 04:19:45 10° S
USA 234 4.1 04:09:54 10° S 04:15:11 26° SW 04:15:59 25° WSW
Cosmos 1805 3.7 04:18:06 10° NNW 04:21:46 38° W 04:25:23 10° SSW
Cosmos 2237 4.4 04:20:06 25° WSW 04:23:20 55° NW 04:28:59 10° NNE
Meteor 1-31 Rocket 3.0 04:22:31 10° NNE 04:26:21 71° ESE 04:30:09 10° S
Cosmos 1378 3.1 04:24:37 15° SSW 04:27:37 62° WNW 04:31:23 10° N
Cosmos 2219 Rocket 2.3 04:25:11 10° SSW 04:30:46 78° ESE 04:36:23 10° NNE
Cosmos 405 3.9 04:31:22 28° WNW 04:31:22 28° WNW 04:34:18 10° N
ADEOS 3.9 04:27:06 10° N 04:32:03 44° WNW 04:36:13 14° SW
Cosmos 2237 Rocket 3.8 04:28:12 10° S 04:33:21 37° ESE 04:38:31 10° NE
Cosmos 1975 Rocket 4.1 04:33:43 25° W 04:34:33 27° WNW 04:38:22 10° N
Cosmos 1470 2.7 04:32:13 10° N 04:36:11 89° W 04:40:06 10° S
COSMOS 2428 2.7 04:30:42 10° SSW 04:36:23 85° ESE 04:42:05 10° NNE
ADEOS II 3.8 04:33:43 10° NNW 04:36:24 14° NW 04:36:53 14° WNW
ATLAS 3B R/B 2.8 04:31:07 10° NW 04:37:49 78° NE 04:44:39 10° SE
CZ-4B R/B 2.8 04:36:49 10° NNE 04:41:04 85° WNW 04:45:04 10° SSW
Cosmos 2181 Rocket 4.2 04:35:35 10° NNW 04:41:41 47° W 04:47:39 10° SSW
COSMO-SKYMED 1 2.7 04:38:31 10° SSE 04:42:52 78° ENE 04:47:14 10° NNW
Cosmos 2074 Rocket 4.0 04:37:37 10° S 04:43:52 87° ESE 04:50:10 10° N
Cosmos 1842 3.4 04:40:38 10° SSW 04:44:29 51° WNW 04:48:22 10° N
Cosmos 1484 Rocket 3.6 04:41:03 10° NNE 04:44:44 51° E 04:48:25 10° S
Cosmos 2369 Rocket 4.4 04:43:06 10° NNW 04:47:15 21° NE 04:51:23 10° E
Okean O Rocket 3.5 04:43:28 10° NNE 04:47:33 35° E 04:51:35 10° SSE
Cosmos 2322 Rocket 3.5 04:44:59 17° WNW 04:47:38 24° NW 04:52:07 10° NNE
NOSS 8 (E) 4.1 04:47:25 17° SW 04:49:44 81° NW 04:52:56 10° NE
Cosmos 1733 3.9 04:46:59 10° NNW 04:50:26 31° W 04:53:51 10° SSW
Cosmos 1707 3.3 04:46:40 10° S 04:50:31 63° E 04:54:25 10° NNE
ATLAS 2AS CENTAUR R/B 3.6 04:43:41 10° SSW 04:51:33 64° SE 04:59:29 10° NE
NOSS 2-2 (C) 3.4 04:48:16 10° SW 04:51:58 78° SE 04:56:17 10° NE
USA 238 DEB 4.2 04:46:01 10° NW 04:52:46 45° WSW 04:59:40 10° S
USA 238 4.1 04:46:08 10° NW 04:52:52 45° WSW 04:59:48 10° S
MSX 4.1 04:48:23 10° N 04:53:50 47° WNW 04:59:16 10° SW
CENTAUR R/B 3.2 04:46:24 10° NW 04:54:17 84° SW 05:02:57 10° SE
Aureole 1 Rocket 3.8 04:50:33 10° SW 04:57:15 65° WNW 05:02:20 10° NNE
Helios 1A Rocket 4.1 04:53:45 10° NNE 04:57:48 48° E 05:01:50 10° S
Meteor PRIRODA 3.6 04:55:23 10° N 04:59:08 75° WNW 05:02:52 10° SSW
Cosmos 2360 Rocket 3.1 04:56:30 15° W 05:00:27 31° NW 05:05:28 10° NNE
USA 32 4.1 04:55:44 10° SSW 05:00:51 56° W 05:06:03 10° N
Lacrosse 4 Rocket 3.6 04:59:37 10° NW 05:01:01 11° NNW 05:02:26 10° N
Cosmos 1726 Rocket 3.8 04:57:05 10° N 05:01:25 72° ENE 05:05:44 10° SSE
USA 116 3.7 04:58:47 10° SSE 05:02:50 83° ENE 05:06:27 10° NNW
Cosmos 407 Rocket 3.9 04:58:41 10° S 05:03:47 66° ESE 05:08:53 10° NNE
ALOS 3.3 04:59:56 10° NNE 05:04:30 50° E 05:09:02 10° S
Cosmos 2058 Rocket 3.9 05:02:47 10° N 05:07:07 56° ENE 05:11:27 10° SSE
Cosmos 1980 Rocket 4.3 05:06:37 10° NNW 05:08:16 11° NNW 05:09:56 10° N
SeaSat 1 4.2 05:05:25 10° NE 05:09:59 36° ESE 05:14:30 10° S
H-2A R/B 3.6 05:08:19 10° N 05:11:32 23° WNW 05:14:50 10° WSW
Cosmos 44 Rocket 4.2 05:08:42 10° NNW 05:13:17 45° NE 05:17:47 10° ESE
Meteor 1-16 Rocket 4.1 05:08:25 10° NNW 05:13:46 88° ENE 05:19:05 10° S
NOSS 8 (H) 4.1 05:11:15 10° SW 05:14:20 74° NW 05:17:35 10° NE
NOSS 0 Rocket 4.1 05:08:26 10° SSW 05:14:36 83° ESE 05:20:50 10° NNE
IDEFIX/ARIANE 42P 3.8 05:13:26 10° N 05:17:20 22° WNW 05:21:14 10° WSW
SJ-12 3.9 05:13:20 10° NNE 05:17:27 89° ESE 05:21:33 10° SSW
Gblst 52 Del rocket 4.3 05:12:14 11° W 05:17:37 87° N 05:23:38 10° E
Cosmos 1844 Rocket 4.3 05:17:25 10° WNW 05:19:31 12° W 05:21:36 10° WSW
Cosmos 1953 2.5 05:15:47 10° NNW 05:19:44 50° W 05:23:37 10° S
Cosmos 292 Rocket 4.3 05:16:09 10° NW 05:20:31 36° WSW 05:24:54 10° S
Cosmos 2228 2.9 05:16:23 10° NNW 05:20:40 70° W 05:24:53 10° S
USA 267 3.7 05:15:07 10° ENE 05:21:25 52° N 05:27:43 10° WNW
Cosmos 1025 Rocket 3.8 05:17:44 10° SW 05:21:30 30° WNW 05:25:17 10° N
SL-16 R/B 4.1 05:17:42 10° S 05:22:46 35° ESE 05:27:52 10° NE
PSLV R/B 3.9 05:19:43 10° N 05:23:21 47° WNW 05:26:56 10° SW
Cosmos 1758 4.2 05:20:33 10° NNW 05:23:56 27° W 05:27:21 10° SSW
Cosmos 389 Rocket 2.4 05:22:50 10° SSW 05:26:12 57° WNW 05:29:37 10° N
Cosmos 2297 4.0 05:21:18 10° NNW 05:27:06 79° ENE 05:32:51 10° SSE
Cosmos 44 3.3 05:23:58 10° NW 05:28:11 46° WSW 05:32:18 10° SSE
NOSS 2-2 (E) 3.7 05:25:09 10° WSW 05:28:50 49° NW 05:33:20 10° NE
Cosmos 2333 Rocket 2.6 05:24:26 10° SW 05:29:52 45° NW 05:35:22 10° NNE
SKYMED 2 4.1 05:26:59 10° SSW 05:31:01 37° W 05:35:04 10° NNW
GP-B 3.2 05:26:39 10° SSW 05:31:02 59° W 05:35:26 10° N
Cosmos 2278 Rocket 2.8 05:27:02 10° NW 05:32:12 37° WSW 05:37:20 10° S
Cosmos 1437 Rocket 3.8 05:29:02 10° S 05:32:44 51° E 05:36:26 10° NNE
Cosmos 921 Rocket 4.2 05:30:05 10° NW 05:33:26 22° W 05:36:44 10° SSW
Meteor 2-10 4.0 05:30:31 10° NNW 05:35:38 77° W 05:40:52 10° S
